BHUTAN-1

Last updated on Thu Nov 19 2020 06:04:09 GMT+0000 (Coordinated Universal Time)

1 43591U 98067PF 20323.57107911 .11695971 12499-4 37838-3 0 9993 2 43591 51.6155 198.6835 0005882 255.3071 104.7305 16.44501217130390

Satellite not in orbit

BHUTAN-1